"read_dt","SO2 (ppb)","flags","PMT voltage (V)","lamp voltage (V)","lamp intensity (Hz)","internal temp (C)","react chamber temp (C)","sample flow (l/min)","pres (mmHg)","SO2 bkg (ppb)","SO2 coefficient"
2014-03-30 00:00:00,4645E-2,5C000491,-0725,1373,5778,010.5,044.8,0.192,758.3,01.16,0.508
2014-03-30 00:01:00,4682E-2,5C000491,-0725,1373,5680,010.5,044.9,0.192,758.4,01.16,0.508
2014-03-30 00:02:00,4644E-2,5C000491,-0725,1373,5774,010.5,044.9,0.192,758.5,01.16,0.508
2014-03-30 00:03:00,4623E-2,5C000491,-0725,1373,5716,010.5,044.9,0.192,758.4,01.16,0.508
2014-03-30 00:04:00,4573E-2,5C000491,-0725,1373,5642,010.5,044.9,0.192,758.3,01.16,0.508
2014-03-30 00:05:00,4686E-2,5C000491,-0725,1373,5687,010.5,044.9,0.192,758.3,01.16,0.508
2014-03-30 00:06:00,4673E-2,5C000491,-0725,1373,5747,010.5,044.9,0.192,758.4,01.16,0.508
2014-03-30 00:07:00,4671E-2,5C000491,-0725,1373,5554,010.5,044.9,0.192,758.3,01.16,0.508
2014-03-30 00:08:00,4653E-2,5C000491,-0725,1373,5589,010.5,044.9,0.192,758.4,01.16,0.508
2014-03-30 00:09:00,4598E-2,5C000491,-0725,1373,5605,010.5,044.9,0.192,758.4,01.16,0.508
2014-03-30 00:10:00,4684E-2,5C000491,-0725,1373,5518,010.5,044.9,0.192,758.3,01.16,0.508
2014-03-30 00:11:00,4675E-2,5C000491,-0725,1373,5515,010.5,044.9,0.192,758.3,01.16,0.508
2014-03-30 00:12:00,4681E-2,5C000491,-0725,1373,5501,010.5,044.9,0.192,758.3,01.16,0.508
2014-03-30 00:13:00,4670E-2,5C000491,-0725,1373,5418,010.5,044.9,0.192,758.2,01.16,0.508
2014-03-30 00:14:00,4709E-2,5C000491,-0725,1373,5369,010.5,044.9,0.192,758.2,01.16,0.508
2014-03-30 00:15:00,4601E-2,5C000491,-0725,1373,5345,010.5,044.8,0.192,758.3,01.16,0.508
2014-03-30 00:16:00,4656E-2,5C000491,-0725,1373,5472,010.5,044.9,0.192,758.2,01.16,0.508
2014-03-30 00:17:00,4633E-2,5C000491,-0725,1373,5423,010.5,044.9,0.192,758.3,01.16,0.508
2014-03-30 00:18:00,4654E-2,5C000491,-0725,1373,5372,010.6,044.8,0.192,758.3,01.16,0.508
2014-03-30 00:19:00,4707E-2,5C000491,-0725,1373,5343,010.6,044.9,0.192,758.3,01.16,0.508
2014-03-30 00:20:00,4704E-2,5C000491,-0725,1373,5262,010.6,044.9,0.192,758.4,01.16,0.508
2014-03-30 00:21:00,4676E-2,5C000491,-0725,1373,5201,010.6,044.8,0.192,758.3,01.16,0.508
2014-03-30 00:22:00,4630E-2,5C000491,-0725,1373,5224,010.6,044.9,0.192,758.3,01.16,0.508
2014-03-30 00:23:00,4690E-2,5C000491,-0725,1373,5164,010.6,044.9,0.192,758.4,01.16,0.508
2014-03-30 00:24:00,4594E-2,5C000491,-0725,1373,5201,010.6,044.9,0.192,758.3,01.16,0.508
2014-03-30 00:25:00,4661E-2,5C000491,-0725,1373,5235,010.6,044.9,0.192,758.3,01.16,0.508
2014-03-30 00:26:00,4659E-2,5C000491,-0725,1373,5135,010.6,044.9,0.192,758.4,01.16,0.508
2014-03-30 00:27:00,4632E-2,5C000491,-0725,1373,5177,010.6,044.9,0.192,758.4,01.16,0.508
2014-03-30 00:28:00,4647E-2,5C000491,-0725,1373,5102,010.6,044.9,0.192,758.3,01.16,0.508
2014-03-30 00:29:00,4650E-2,5C000491,-0725,1373,5115,010.6,044.9,0.192,758.3,01.16,0.508
2014-03-30 00:30:00,4628E-2,5C000491,-0725,1373,5073,010.6,044.9,0.192,758.4,01.16,0.508
2014-03-30 00:31:00,4748E-2,5C000491,-0725,1373,5079,010.6,044.9,0.192,758.3,01.16,0.508
2014-03-30 00:32:00,4692E-2,5C000491,-0725,1373,5045,010.6,044.9,0.192,758.4,01.16,0.508
2014-03-30 00:33:00,4686E-2,5C000491,-0725,1373,5104,010.7,044.9,0.192,758.5,01.16,0.508
2014-03-30 00:34:00,4658E-2,5C000491,-0725,1373,5082,010.7,044.8,0.192,758.5,01.16,0.508
2014-03-30 00:35:00,4683E-2,5C000491,-0725,1373,5076,010.7,044.9,0.192,758.6,01.16,0.508
2014-03-30 00:36:00,4764E-2,5C000491,-0725,1373,5041,010.7,044.9,0.192,758.6,01.16,0.508
2014-03-30 00:37:00,4672E-2,5C000491,-0725,1373,5073,010.7,044.9,0.192,758.6,01.16,0.508
2014-03-30 00:38:00,4640E-2,5C000491,-0725,1373,5135,010.7,044.8,0.192,758.5,01.16,0.508
2014-03-30 00:39:00,4647E-2,5C000491,-0725,1373,4975,010.7,044.8,0.192,758.6,01.16,0.508
2014-03-30 00:40:00,4660E-2,5C000491,-0725,1373,5061,010.7,044.9,0.192,758.5,01.16,0.508
2014-03-30 00:41:00,4674E-2,5C000491,-0725,1373,5007,010.7,044.9,0.192,758.5,01.16,0.508
2014-03-30 00:42:00,4636E-2,5C000491,-0725,1373,5006,010.7,044.8,0.192,758.3,01.16,0.508
2014-03-30 00:43:00,4699E-2,5C000491,-0725,1373,4965,010.7,044.9,0.192,758.6,01.16,0.508
2014-03-30 00:44:00,4696E-2,5C000491,-0725,1373,4979,010.7,044.8,0.192,758.5,01.16,0.508
2014-03-30 00:45:00,4718E-2,5C000491,-0725,1373,4996,010.7,044.8,0.192,758.4,01.16,0.508
2014-03-30 00:46:00,4739E-2,5C000491,-0725,1373,4942,010.7,044.8,0.192,758.5,01.16,0.508
2014-03-30 00:47:00,4667E-2,5C000491,-0725,1373,4918,010.7,044.9,0.192,758.6,01.16,0.508
2014-03-30 00:48:00,4729E-2,5C000491,-0725,1373,4930,010.7,044.8,0.192,758.6,01.16,0.508
2014-03-30 00:49:00,4665E-2,5C000491,-0725,1373,4904,010.8,044.9,0.192,758.6,01.16,0.508
2014-03-30 00:50:00,4655E-2,5C000491,-0725,1373,4898,010.8,044.9,0.192,758.5,01.16,0.508
2014-03-30 00:51:00,4657E-2,5C000491,-0725,1373,4797,010.8,044.8,0.192,758.5,01.16,0.508
2014-03-30 00:52:00,4627E-2,5C000491,-0725,1373,4827,010.8,044.9,0.192,758.5,01.16,0.508
2014-03-30 00:53:00,4606E-2,5C000491,-0725,1373,4808,010.8,044.9,0.191,758.6,01.16,0.508
2014-03-30 00:54:00,4641E-2,5C000491,-0725,1373,4781,010.8,044.9,0.191,758.5,01.16,0.508
2014-03-30 00:55:00,4632E-2,5C000491,-0725,1373,4852,010.8,044.8,0.191,758.4,01.16,0.508
2014-03-30 00:56:00,4605E-2,5C000491,-0725,1373,4755,010.8,044.8,0.191,758.3,01.16,0.508
2014-03-30 00:57:00,4656E-2,5C000491,-0725,1373,4793,010.8,044.9,0.191,758.5,01.16,0.508
2014-03-30 00:58:00,4719E-2,5C000491,-0725,1373,4887,010.8,044.9,0.191,758.4,01.16,0.508
2014-03-30 00:59:00,4735E-2,5C000491,-0725,1373,4917,010.8,044.8,0.191,758.4,01.16,0.508
2014-03-30 01:00:00,4678E-2,5C000491,-0725,1373,4987,010.8,044.9,0.191,758.5,01.16,0.508
2014-03-30 01:01:00,4751E-2,5C000491,-0725,1373,4987,010.9,044.9,0.191,758.5,01.16,0.508
2014-03-30 01:02:00,4688E-2,5C000491,-0725,1373,4937,010.9,044.9,0.191,758.4,01.16,0.508
2014-03-30 01:03:00,4789E-2,5C000491,-0725,1373,5033,010.9,044.9,0.191,758.4,01.16,0.508
2014-03-30 01:04:00,4756E-2,5C000491,-0725,1373,4983,010.9,044.9,0.191,758.5,01.16,0.508
2014-03-30 01:05:00,4682E-2,5C000491,-0725,1373,5019,010.9,044.8,0.191,758.5,01.16,0.508
2014-03-30 01:06:00,4703E-2,5C000491,-0725,1373,5152,010.9,044.9,0.191,758.5,01.16,0.508
2014-03-30 01:07:00,4743E-2,5C000491,-0725,1373,5160,010.9,044.9,0.191,758.5,01.16,0.508
2014-03-30 01:08:00,4817E-2,5C000491,-0725,1373,5172,010.9,044.9,0.191,758.4,01.16,0.508
2014-03-30 01:09:00,4731E-2,5C000491,-0725,1373,5103,010.9,044.9,0.191,758.5,01.16,0.508
2014-03-30 01:10:00,4717E-2,5C000491,-0725,1373,5467,010.9,044.9,0.191,758.4,01.16,0.508
2014-03-30 01:11:00,4665E-2,5C000491,-0725,1373,5417,010.9,044.8,0.191,758.5,01.16,0.508
2014-03-30 01:12:00,4657E-2,5C000491,-0725,1373,5412,010.9,044.9,0.191,758.6,01.16,0.508
2014-03-30 01:13:00,4681E-2,5C000491,-0725,1373,5499,010.9,044.9,0.191,758.5,01.16,0.508
2014-03-30 01:14:00,4665E-2,5C000491,-0725,1373,5392,010.9,044.9,0.191,758.4,01.16,0.508
2014-03-30 01:15:00,4674E-2,5C000491,-0725,1373,5376,011.0,044.8,0.191,758.4,01.16,0.508
2014-03-30 01:16:00,4640E-2,5C000491,-0725,1373,5468,010.9,044.8,0.191,758.4,01.16,0.508
2014-03-30 01:17:00,4616E-2,5C000491,-0725,1373,5446,011.0,044.9,0.191,758.5,01.16,0.508
2014-03-30 01:18:00,4619E-2,5C000491,-0725,1373,5307,011.0,044.9,0.191,758.5,01.16,0.508
2014-03-30 01:19:00,4590E-2,5C000491,-0725,1373,5369,011.0,044.9,0.191,758.4,01.16,0.508
2014-03-30 01:20:00,4628E-2,5C000491,-0725,1373,5354,011.0,044.9,0.191,758.4,01.16,0.508
2014-03-30 01:21:00,4678E-2,5C000491,-0725,1373,5260,011.0,044.8,0.191,758.3,01.16,0.508
2014-03-30 01:22:00,4305E-2,5C000491,-0725,1373,5578,011.1,044.9,0.191,758.4,01.16,0.508
2014-03-30 01:23:00,4007E-2,5C000491,-0725,1373,5611,011.0,044.9,0.191,758.5,01.16,0.508
2014-03-30 01:24:00,4060E-2,5C000491,-0725,1373,5738,011.0,044.9,0.191,758.4,01.16,0.508
2014-03-30 01:25:00,4056E-2,5C000491,-0725,1373,5786,011.0,044.8,0.191,758.4,01.16,0.508
2014-03-30 01:26:00,4082E-2,5C000491,-0725,1373,5705,011.1,044.8,0.191,758.5,01.16,0.508
2014-03-30 01:27:00,4053E-2,5C000491,-0725,1373,5682,011.1,044.9,0.191,758.5,01.16,0.508
2014-03-30 01:28:00,4093E-2,5C000491,-0725,1373,5689,011.1,044.9,0.191,758.4,01.16,0.508
2014-03-30 01:29:00,4125E-2,5C000491,-0725,1373,5671,011.1,044.8,0.191,758.4,01.16,0.508
2014-03-30 01:30:00,4153E-2,5C000491,-0725,1373,5696,011.1,044.8,0.191,758.5,01.16,0.508
2014-03-30 01:31:00,4134E-2,5C000491,-0725,1373,5626,011.1,044.9,0.191,758.4,01.16,0.508
2014-03-30 01:32:00,4137E-2,5C000491,-0725,1373,5579,011.1,044.9,0.191,758.4,01.16,0.508
2014-03-30 01:33:00,4100E-2,5C000491,-0725,1373,5550,011.1,044.9,0.191,758.4,01.16,0.508
2014-03-30 01:34:00,4176E-2,5C000491,-0725,1373,5598,011.1,044.9,0.191,758.3,01.16,0.508
2014-03-30 01:35:00,4153E-2,5C000491,-0725,1373,5521,011.1,044.9,0.191,758.3,01.16,0.508
2014-03-30 01:36:00,4126E-2,5C000491,-0725,1373,5475,011.1,044.9,0.191,758.4,01.16,0.508
2014-03-30 01:37:00,4122E-2,5C000491,-0725,1373,5487,011.1,044.9,0.191,758.3,01.16,0.508
2014-03-30 01:38:00,4151E-2,5C000491,-0725,1373,5343,011.1,044.9,0.191,758.5,01.16,0.508
2014-03-30 01:39:00,4137E-2,5C000491,-0725,1373,5410,011.1,044.9,0.191,758.4,01.16,0.508
2014-03-30 01:40:00,4173E-2,5C000491,-0725,1373,5438,011.2,044.9,0.191,758.3,01.16,0.508
2014-03-30 01:41:00,4137E-2,5C000491,-0725,1373,5401,011.2,044.9,0.191,758.2,01.16,0.508
2014-03-30 01:42:00,4157E-2,5C000491,-0725,1373,5362,011.2,044.9,0.190,758.3,01.16,0.508
2014-03-30 01:43:00,4145E-2,5C000491,-0725,1373,5427,011.2,044.9,0.191,758.4,01.16,0.508
2014-03-30 01:44:00,4202E-2,5C000491,-0725,1373,5618,011.2,044.9,0.190,758.4,01.16,0.508
2014-03-30 01:45:00,4224E-2,5C000491,-0725,1373,5609,011.2,044.9,0.191,758.3,01.16,0.508
2014-03-30 01:46:00,4242E-2,5C000491,-0725,1373,5625,011.2,044.9,0.190,758.3,01.16,0.508
2014-03-30 01:47:00,4334E-2,5C000491,-0725,1373,5576,011.2,044.9,0.190,758.5,01.16,0.508
2014-03-30 01:48:00,4321E-2,5C000491,-0725,1373,5545,011.2,044.9,0.191,758.5,01.16,0.508
2014-03-30 01:49:00,4270E-2,5C000491,-0725,1373,5505,011.2,044.9,0.190,758.4,01.16,0.508
2014-03-30 01:50:00,4300E-2,5C000491,-0725,1373,5463,011.2,044.9,0.190,758.3,01.16,0.508
2014-03-30 01:51:00,4290E-2,5C000491,-0725,1373,5437,011.2,044.9,0.190,758.3,01.16,0.508
2014-03-30 01:52:00,4215E-2,5C000491,-0725,1373,5565,011.2,044.9,0.190,758.4,01.16,0.508
2014-03-30 01:53:00,4309E-2,5C000491,-0725,1373,5555,011.2,044.9,0.190,758.4,01.16,0.508
2014-03-30 01:54:00,4329E-2,5C000491,-0725,1373,5498,011.2,044.8,0.190,758.3,01.16,0.508
2014-03-30 01:55:00,4350E-2,5C000491,-0725,1373,5570,011.2,044.9,0.190,758.2,01.16,0.508
2014-03-30 01:56:00,4302E-2,5C000491,-0725,1373,5517,011.2,044.8,0.190,758.3,01.16,0.508
2014-03-30 01:57:00,4322E-2,5C000491,-0725,1373,5375,011.3,044.9,0.190,758.3,01.16,0.508
2014-03-30 01:58:00,4342E-2,5C000491,-0725,1373,5510,011.3,044.9,0.190,758.2,01.16,0.508
2014-03-30 01:59:00,4369E-2,5C000491,-0725,1373,5509,011.3,044.9,0.190,758.2,01.16,0.508
2014-03-30 02:00:00,4342E-2,5C000491,-0725,1373,5409,011.3,044.9,0.190,758.3,01.16,0.508
2014-03-30 02:01:00,4394E-2,5C000491,-0725,1373,5426,011.3,044.9,0.190,758.3,01.16,0.508
2014-03-30 02:02:00,4392E-2,5C000491,-0725,1373,5487,011.3,044.9,0.190,758.3,01.16,0.508
2014-03-30 02:03:00,4378E-2,5C000491,-0725,1373,5385,011.3,044.9,0.190,758.3,01.16,0.508
2014-03-30 02:04:00,4335E-2,5C000491,-0725,1373,5394,011.3,044.8,0.190,758.4,01.16,0.508
2014-03-30 02:05:00,4428E-2,5C000491,-0725,1373,5375,011.3,044.9,0.190,758.4,01.16,0.508
2014-03-30 02:06:00,4474E-2,5C000491,-0725,1373,5345,011.3,044.9,0.190,758.6,01.16,0.508
2014-03-30 02:07:00,4445E-2,5C000491,-0725,1373,5341,011.3,044.9,0.190,758.4,01.16,0.508
2014-03-30 02:08:00,4418E-2,5C000491,-0725,1373,5160,011.3,044.9,0.190,758.5,01.16,0.508
2014-03-30 02:09:00,4453E-2,5C000491,-0725,1373,5353,011.4,044.9,0.190,758.5,01.16,0.508
2014-03-30 02:10:00,4420E-2,5C000491,-0725,1373,5296,011.4,044.9,0.190,758.6,01.16,0.508
2014-03-30 02:11:00,4430E-2,5C000491,-0725,1373,5184,011.4,044.9,0.190,758.4,01.16,0.508
2014-03-30 02:12:00,4480E-2,5C000491,-0725,1373,5317,011.4,044.9,0.190,758.5,01.16,0.508
2014-03-30 02:13:00,4482E-2,5C000491,-0725,1373,5357,011.4,044.9,0.190,758.6,01.16,0.508
2014-03-30 02:14:00,4525E-2,5C000491,-0725,1373,5245,011.4,044.9,0.190,758.6,01.16,0.508
2014-03-30 02:15:00,4552E-2,5C000491,-0725,1373,5259,011.4,044.9,0.190,758.6,01.16,0.508
2014-03-30 02:16:00,4517E-2,5C000491,-0725,1373,5238,011.4,044.9,0.190,758.5,01.16,0.508
2014-03-30 02:17:00,4493E-2,5C000491,-0725,1373,5268,011.5,044.9,0.190,758.5,01.16,0.508
2014-03-30 02:18:00,4541E-2,5C000491,-0725,1373,5212,011.4,044.9,0.190,758.6,01.16,0.508
2014-03-30 02:19:00,4539E-2,5C000491,-0725,1373,5301,011.5,044.9,0.190,758.7,01.16,0.508
2014-03-30 02:20:00,4509E-2,5C000491,-0725,1373,5348,011.5,044.9,0.190,758.6,01.16,0.508
2014-03-30 02:21:00,4558E-2,5C000491,-0725,1373,5264,011.5,044.9,0.190,758.5,01.16,0.508
2014-03-30 02:22:00,4604E-2,5C000491,-0725,1373,5364,011.5,044.9,0.190,758.6,01.16,0.508
2014-03-30 02:23:00,4635E-2,5C000491,-0725,1373,5326,011.5,044.9,0.190,758.5,01.16,0.508
2014-03-30 02:24:00,4606E-2,5C000491,-0725,1373,5223,011.5,044.9,0.190,758.6,01.16,0.508
2014-03-30 02:25:00,4645E-2,5C000491,-0725,1373,5238,011.6,044.9,0.190,758.8,01.16,0.508
2014-03-30 02:26:00,4614E-2,5C000491,-0725,1373,5283,011.6,044.9,0.190,758.7,01.16,0.508
2014-03-30 02:27:00,4670E-2,5C000491,-0725,1373,5316,011.6,044.9,0.190,758.7,01.16,0.508
2014-03-30 02:28:00,4735E-2,5C000491,-0725,1373,5294,011.6,044.9,0.190,758.6,01.16,0.508
2014-03-30 02:29:00,4700E-2,5C000491,-0725,1373,5278,011.6,044.9,0.190,758.6,01.16,0.508
2014-03-30 02:30:00,4745E-2,5C000491,-0725,1373,5301,011.6,044.9,0.190,758.7,01.16,0.508
2014-03-30 02:31:00,4708E-2,5C000491,-0725,1373,5301,011.6,044.9,0.190,758.6,01.16,0.508
2014-03-30 02:32:00,4681E-2,5C000491,-0725,1373,5322,011.6,044.9,0.190,758.6,01.16,0.508
2014-03-30 02:33:00,4775E-2,5C000491,-0725,1373,5285,011.7,044.9,0.190,758.6,01.16,0.508
2014-03-30 02:34:00,4729E-2,5C000491,-0725,1373,5219,011.7,044.9,0.189,758.6,01.16,0.508
2014-03-30 02:35:00,4764E-2,5C000491,-0725,1373,5176,011.7,044.9,0.189,758.7,01.16,0.508
2014-03-30 02:36:00,4725E-2,5C000491,-0725,1373,5209,011.7,044.9,0.189,758.6,01.16,0.508
2014-03-30 02:37:00,4747E-2,5C000491,-0725,1373,5165,011.7,044.9,0.189,758.6,01.16,0.508
2014-03-30 02:38:00,4689E-2,5C000491,-0725,1373,5218,011.7,044.9,0.189,758.6,01.16,0.508
2014-03-30 02:39:00,4744E-2,5C000491,-0725,1373,5248,011.8,044.9,0.189,758.4,01.16,0.508
2014-03-30 02:40:00,4836E-2,5C000491,-0725,1373,5218,011.8,044.8,0.189,758.5,01.16,0.508
2014-03-30 02:41:00,4765E-2,5C000491,-0725,1373,5265,011.8,044.9,0.189,758.6,01.16,0.508
2014-03-30 02:42:00,4759E-2,5C000491,-0725,1373,5253,011.8,044.9,0.189,758.5,01.16,0.508
2014-03-30 02:43:00,4788E-2,5C000491,-0725,1373,5179,011.8,044.9,0.189,758.6,01.16,0.508
2014-03-30 02:44:00,4738E-2,5C000491,-0725,1373,5240,011.8,044.9,0.189,758.7,01.16,0.508
2014-03-30 02:45:00,4849E-2,5C000491,-0725,1373,5882,011.8,044.9,0.189,758.7,01.16,0.508
2014-03-30 02:46:00,4903E-2,5C000491,-0725,1373,5895,011.8,044.9,0.189,758.5,01.16,0.508
2014-03-30 02:47:00,4970E-2,5C000491,-0725,1373,5877,011.9,044.9,0.189,758.6,01.16,0.508
2014-03-30 02:48:00,4946E-2,5C000491,-0725,1373,5967,011.9,044.9,0.189,758.6,01.16,0.508
2014-03-30 02:49:00,4935E-2,5C000491,-0725,1373,5873,011.9,044.9,0.189,758.4,01.16,0.508
2014-03-30 02:50:00,4981E-2,5C000491,-0725,1373,5812,011.9,044.9,0.189,758.5,01.16,0.508
2014-03-30 02:51:00,4990E-2,5C000491,-0725,1373,5803,011.9,044.9,0.189,758.6,01.16,0.508
2014-03-30 02:52:00,4935E-2,5C000491,-0725,1373,5778,011.9,044.9,0.189,758.6,01.16,0.508
2014-03-30 02:53:00,4924E-2,5C000491,-0725,1373,5878,011.9,044.9,0.189,758.5,01.16,0.508
2014-03-30 02:54:00,4938E-2,5C000491,-0725,1373,5823,011.9,044.9,0.189,758.3,01.16,0.508
2014-03-30 02:55:00,4956E-2,5C000491,-0725,1373,5854,012.0,044.9,0.189,758.6,01.16,0.508
2014-03-30 02:56:00,4894E-2,5C000491,-0725,1373,5812,012.0,044.9,0.189,758.6,01.16,0.508
2014-03-30 02:57:00,4941E-2,5C000491,-0725,1373,5813,012.0,044.9,0.189,758.5,01.16,0.508
2014-03-30 02:58:00,4999E-2,5C000491,-0725,1373,5796,012.0,044.9,0.189,758.5,01.16,0.508
2014-03-30 02:59:00,4979E-2,5C000491,-0725,1373,5718,012.0,044.9,0.189,758.7,01.16,0.508
2014-03-30 03:00:00,5000E-2,5C000491,-0725,1373,5690,012.0,044.9,0.189,758.3,01.16,0.508
2014-03-30 03:01:00,4944E-2,5C000491,-0725,1373,5641,012.0,044.9,0.189,758.4,01.16,0.508
2014-03-30 03:02:00,4993E-2,5C000491,-0725,1373,5650,012.1,044.9,0.189,758.4,01.16,0.508
2014-03-30 03:03:00,4931E-2,5C000491,-0725,1373,5652,012.1,044.9,0.189,758.4,01.16,0.508
2014-03-30 03:04:00,5009E-2,5C000491,-0725,1373,5583,012.1,044.9,0.189,758.4,01.16,0.508
2014-03-30 03:05:00,4971E-2,5C000491,-0725,1373,5609,012.1,044.9,0.188,758.4,01.16,0.508
2014-03-30 03:06:00,4956E-2,5C000491,-0725,1373,5590,012.1,044.9,0.188,758.5,01.16,0.508
2014-03-30 03:07:00,4960E-2,5C000491,-0725,1373,5572,012.1,044.9,0.188,758.5,01.16,0.508
2014-03-30 03:08:00,4936E-2,5C000491,-0725,1373,5604,012.1,044.9,0.188,758.5,01.16,0.508
2014-03-30 03:09:00,4899E-2,5C000491,-0725,1373,5641,012.2,044.9,0.188,758.6,01.16,0.508
2014-03-30 03:10:00,4948E-2,5C000491,-0725,1373,5584,012.2,044.9,0.188,758.6,01.16,0.508
2014-03-30 03:11:00,4985E-2,5C000491,-0725,1373,5573,012.2,044.9,0.188,758.5,01.16,0.508
2014-03-30 03:12:00,4941E-2,5C000491,-0725,1373,5568,012.2,044.9,0.188,758.5,01.16,0.508
2014-03-30 03:13:00,4925E-2,5C000491,-0725,1373,5505,012.2,044.9,0.188,758.6,01.16,0.508
2014-03-30 03:14:00,4967E-2,5C000491,-0725,1373,5487,012.2,044.9,0.188,758.5,01.16,0.508
2014-03-30 03:15:00,4986E-2,5C000491,-0725,1373,5520,012.2,044.9,0.188,758.4,01.16,0.508
2014-03-30 03:16:00,5012E-2,5C000491,-0725,1373,5556,012.2,044.9,0.188,758.5,01.16,0.508
2014-03-30 03:17:00,4977E-2,5C000491,-0725,1373,5476,012.2,044.9,0.188,758.4,01.16,0.508
2014-03-30 03:18:00,4970E-2,5C000491,-0725,1373,5520,012.2,044.9,0.188,758.6,01.16,0.508
2014-03-30 03:19:00,4951E-2,5C000491,-0725,1373,5599,012.3,044.9,0.188,758.6,01.16,0.508
2014-03-30 03:20:00,4993E-2,5C000491,-0725,1373,5647,012.3,044.9,0.188,758.6,01.16,0.508
2014-03-30 03:21:00,5045E-2,5C000491,-0725,1373,5708,012.3,044.9,0.188,758.6,01.16,0.508
2014-03-30 03:22:00,5080E-2,5C000491,-0725,1373,5833,012.3,044.9,0.188,758.5,01.16,0.508
2014-03-30 03:23:00,4996E-2,5C000491,-0725,1373,5773,012.3,044.9,0.188,758.6,01.16,0.508
2014-03-30 03:24:00,4995E-2,5C000491,-0725,1373,5791,012.3,044.9,0.188,758.5,01.16,0.508
2014-03-30 03:25:00,5036E-2,5C000491,-0725,1373,5773,012.3,044.9,0.188,758.5,01.16,0.508
2014-03-30 03:26:00,5009E-2,5C000491,-0725,1373,5817,012.4,044.9,0.188,758.5,01.16,0.508
2014-03-30 03:27:00,5082E-2,5C000491,-0725,1373,5731,012.4,044.9,0.188,758.5,01.16,0.508
2014-03-30 03:28:00,5043E-2,5C000491,-0725,1373,5732,012.4,044.9,0.188,758.6,01.16,0.508
2014-03-30 03:29:00,4995E-2,5C000491,-0725,1373,5698,012.4,044.9,0.188,758.6,01.16,0.508
2014-03-30 03:30:00,5097E-2,5C000491,-0725,1373,5686,012.4,044.9,0.188,758.5,01.16,0.508
2014-03-30 03:31:00,5056E-2,5C000491,-0725,1373,5726,012.4,044.9,0.188,758.6,01.16,0.508
2014-03-30 03:32:00,5105E-2,5C000491,-0725,1373,5720,012.4,044.9,0.188,758.6,01.16,0.508
2014-03-30 03:33:00,5018E-2,5C000491,-0725,1373,5609,012.5,044.9,0.188,758.6,01.16,0.508
2014-03-30 03:34:00,5025E-2,5C000491,-0725,1373,5654,012.5,044.9,0.188,758.5,01.16,0.508
2014-03-30 03:35:00,5085E-2,5C000491,-0725,1373,5597,012.5,044.9,0.188,758.4,01.16,0.508
2014-03-30 03:36:00,5114E-2,5C000491,-0725,1373,5612,012.5,044.9,0.188,758.5,01.16,0.508
2014-03-30 03:37:00,5100E-2,5C000491,-0725,1373,5577,012.5,044.9,0.187,758.5,01.16,0.508
2014-03-30 03:38:00,5126E-2,5C000491,-0725,1373,5617,012.5,044.9,0.187,758.6,01.16,0.508
2014-03-30 03:39:00,5088E-2,5C000491,-0725,1373,5629,012.5,044.9,0.187,758.5,01.16,0.508
2014-03-30 03:40:00,5150E-2,5C000491,-0725,1373,5587,012.5,044.9,0.187,758.5,01.16,0.508
2014-03-30 03:41:00,5129E-2,5C000491,-0725,1373,5527,012.5,044.9,0.187,758.5,01.16,0.508
2014-03-30 03:42:00,5150E-2,5C000491,-0725,1373,5411,012.5,044.9,0.187,758.4,01.16,0.508
2014-03-30 03:43:00,5221E-2,5C000491,-0725,1373,5597,012.6,044.9,0.187,758.5,01.16,0.508
2014-03-30 03:44:00,5261E-2,5C000491,-0725,1373,5493,012.6,044.9,0.187,758.7,01.16,0.508
2014-03-30 03:45:00,5249E-2,5C000491,-0725,1373,5449,012.6,044.9,0.187,758.6,01.16,0.508
2014-03-30 03:46:00,5233E-2,5C000491,-0725,1373,5514,012.6,044.9,0.187,758.5,01.16,0.508
2014-03-30 03:47:00,5290E-2,5C000491,-0725,1373,5541,012.6,044.9,0.187,758.3,01.16,0.508
2014-03-30 03:48:00,5271E-2,5C000491,-0725,1373,5442,012.6,044.8,0.187,758.4,01.16,0.508
2014-03-30 03:49:00,5239E-2,5C000491,-0725,1373,5435,012.6,044.9,0.187,758.5,01.16,0.508
2014-03-30 03:50:00,5278E-2,5C000491,-0725,1373,5442,012.6,044.9,0.187,758.6,01.16,0.508
2014-03-30 03:51:00,5229E-2,5C000491,-0725,1373,5463,012.7,044.9,0.187,758.5,01.16,0.508
2014-03-30 03:52:00,5263E-2,5C000491,-0725,1373,5341,012.7,044.9,0.187,758.5,01.16,0.508
2014-03-30 03:53:00,5307E-2,5C000491,-0725,1373,5336,012.7,044.9,0.187,758.6,01.16,0.508
2014-03-30 03:54:00,5267E-2,5C000491,-0725,1373,5326,012.7,044.9,0.187,758.6,01.16,0.508
2014-03-30 03:55:00,5317E-2,5C000491,-0725,1373,5295,012.7,044.9,0.187,758.6,01.16,0.508
2014-03-30 03:56:00,5249E-2,5C000491,-0725,1373,5266,012.7,044.9,0.187,758.6,01.16,0.508
2014-03-30 03:57:00,5290E-2,5C000491,-0725,1373,5298,012.7,044.9,0.187,758.6,01.16,0.508
2014-03-30 03:58:00,5253E-2,5C000491,-0725,1373,5228,012.7,044.9,0.187,758.7,01.16,0.508
2014-03-30 03:59:00,5303E-2,5C000491,-0725,1373,5300,012.7,044.9,0.187,758.5,01.16,0.508
2014-03-30 04:00:00,5347E-2,5C000491,-0725,1373,5253,012.8,044.9,0.187,758.5,01.16,0.508
2014-03-30 04:01:00,5307E-2,5C000491,-0725,1373,5162,012.8,044.9,0.187,758.6,01.16,0.508
2014-03-30 04:02:00,5279E-2,5C000491,-0725,1373,5217,012.8,044.9,0.187,758.6,01.16,0.508
2014-03-30 04:03:00,5292E-2,5C000491,-0725,1373,5195,012.8,044.9,0.187,758.6,01.16,0.508
2014-03-30 04:04:00,5283E-2,5C000491,-0725,1373,5215,012.8,044.9,0.187,758.7,01.16,0.508
2014-03-30 04:05:00,5326E-2,5C000491,-0725,1373,5169,012.9,044.9,0.187,758.6,01.16,0.508
2014-03-30 04:06:00,5271E-2,5C000491,-0725,1373,5107,012.8,044.9,0.187,758.5,01.16,0.508
2014-03-30 04:07:00,5325E-2,5C000491,-0725,1373,5105,012.9,044.9,0.187,758.5,01.16,0.508
2014-03-30 04:08:00,5311E-2,5C000491,-0725,1373,5126,012.9,044.9,0.187,758.6,01.16,0.508
2014-03-30 04:09:00,5315E-2,5C000491,-0725,1373,5064,012.9,044.9,0.186,758.6,01.16,0.508
2014-03-30 04:10:00,5308E-2,5C000491,-0725,1373,5071,012.9,044.9,0.187,758.4,01.16,0.508
2014-03-30 04:11:00,5291E-2,5C000491,-0725,1373,5023,012.9,044.9,0.186,758.3,01.16,0.508
2014-03-30 04:12:00,5277E-2,5C000491,-0725,1373,4997,012.9,044.9,0.186,758.4,01.16,0.508
2014-03-30 04:13:00,5292E-2,5C000491,-0725,1373,5004,012.9,044.9,0.187,758.4,01.16,0.508
2014-03-30 04:14:00,5264E-2,5C000491,-0725,1373,4976,012.9,044.9,0.186,758.5,01.16,0.508
2014-03-30 04:15:00,5309E-2,5C000491,-0725,1373,4956,012.9,044.9,0.186,758.3,01.16,0.508
2014-03-30 04:16:00,5326E-2,5C000491,-0725,1373,4894,013.0,044.9,0.186,758.3,01.16,0.508
2014-03-30 04:17:00,5312E-2,5C000491,-0725,1373,4915,013.0,044.9,0.186,758.4,01.16,0.508
2014-03-30 04:18:00,5263E-2,5C000491,-0725,1373,4852,013.0,044.9,0.186,758.5,01.16,0.508
2014-03-30 04:19:00,5314E-2,5C000491,-0725,1373,4907,013.0,044.9,0.186,758.5,01.16,0.508
2014-03-30 04:20:00,5350E-2,5C000491,-0725,1373,4904,013.0,044.9,0.186,758.5,01.16,0.508
2014-03-30 04:21:00,5345E-2,5C000491,-0725,1373,4905,013.0,044.9,0.186,758.3,01.16,0.508
2014-03-30 04:22:00,5315E-2,5C000491,-0725,1373,5048,013.0,044.9,0.186,758.4,01.16,0.508
2014-03-30 04:23:00,5244E-2,5C000491,-0725,1373,5174,013.0,044.9,0.186,758.6,01.16,0.508